User: anonymous   Login
Location: NJAA Observatory
(40.6819°N, 74.8979°W)
Time: 14:41:24
(UTC-04:00)
Language:

Cosmos 1328 Rocket - Orbit

View from above orbital plane
View from above orbital plane
View from above satellite
View from above satellite

Ground track
Ground track

The orbit data is extracted from the following two-line orbital elements,

1 12988U 81117B   16273.19861060  .00000165  00000-0  16657-4 0  9997
2 12988  82.5245 318.1488 0017882 354.9330  63.9634 14.84609736881097
Epoch (UTC): 29 September 2016 04:45:59
Eccentricity: 0.0017882
inclination: 82.5245°
perigee height: 602 km
apogee height: 627 km
right ascension of ascending node: 318.1488°
argument of perigee: 354.9330°
revolutions per day: 14.84609736
mean anomaly at epoch: 63.9634°
orbit number at epoch: 88109

The dashed part of the orbit path shows where the satellite is in the earth's shadow,  

DLR